Lafayette, LA

10:56 PM CDT on June 25, 2017 (GMT -0500)
Lafayette Regional

Weather History for KLFT - August, 2012

Change the Weather History Date:

Thursday, August 30, 2012

  Actual Average Record
Temperature  
Mean Temperature 81 °F 83 °F  
Max Temperature 87 °F 92 °F 104 °F (2000)
Min Temperature 74 °F 74 °F 59 °F (1906)
Cooling Degree Days 16 18  
Month to date cooling degree days 532 562  
Year to date cooling degree days 2427 2246  
Since 1 June cooling degree days 1581 1632  
Growing Degree Days 30 (Base 50)    
Moisture  
Dew Point 73 °F    
Average Humidity 78    
Maximum Humidity 94    
Minimum Humidity 61    
Precipitation  
Precipitation 0.32 in 0.15 in 1.40 in (1974)
Month to date precipitation 8.21 4.47  
Year to date precipitation 51.72 40.47  
Sea Level Pressure  
Sea Level Pressure 29.54 in    
Wind  
Wind Speed 14 mph (WSW)    
Max Wind Speed 26 mph    
Max Gust Speed 36 mph    
Visibility 7 miles    
Events Rain    
T = Trace of Precipitation, MM = Missing Value Source: NWS Daily Summary

Daily Weather History Graph

Daily Weather History Graph

Search for Another Location

Airport or City:

Trip Planner

Search our weather history database for the weather conditions in past years. The results will help you decide how hot, cold, wet, or windy it might be!

Date:

Astronomy

Aug. 30, 2012 Rise Set
Actual Time 6:43 AM CDT 7:32 PM CDT
Civil Twilight 6:19 AM CDT 7:56 PM CDT
Nautical Twilight 5:50 AM CDT 8:25 PM CDT
Astronomical Twilight 5:21 AM CDT 8:55 PM CDT
Moon 6:49 PM CDT (8/30) 5:45 AM CDT (8/30)
Length of Visible Light 13h 37m
Length of Day
12h 48m
Waxing Gibbous, 99% of the Moon is Illuminated
Aug 30
Waxing Gibbous
Aug 31
Full
Sep 8
Last Quarter
Sep 15
New
Sep 22
First Quarter

Hourly Weather History & Observations

Time (CDT) Temp. Heat Index Dew Point Humidity Pressure Visibility Wind Dir Wind Speed Gust Speed Precip Events Conditions
12:00 AM 75.2 °F - 73.4 °F 94% 29.25 in 3.0 mi WNW 20.7 mph 28.8 mph 0.00 in Rain Rain
12:53 AM 75.0 °F - 73.0 °F 94% 29.26 in 5.0 mi WNW 16.1 mph 26.5 mph 0.01 in Rain Rain
1:29 AM 75.2 °F - 73.4 °F 94% 29.27 in 4.0 mi West 17.3 mph 25.3 mph 0.01 in Rain Rain
1:46 AM 75.2 °F - 73.4 °F 94% 29.27 in 3.0 mi West 17.3 mph 25.3 mph 0.02 in Rain Rain
1:53 AM 75.0 °F - 73.0 °F 94% 29.27 in 3.0 mi West 18.4 mph 25.3 mph 0.02 in Rain Rain
2:01 AM 75.2 °F - 73.4 °F 94% 29.28 in 2.5 mi West 15.0 mph 25.3 mph 0.01 in Rain Rain
2:42 AM 75.2 °F - 71.6 °F 89% 29.28 in 3.0 mi West 19.6 mph 26.5 mph 0.05 in Rain Rain
2:53 AM 75.0 °F - 72.0 °F 90% 29.29 in 4.0 mi West 17.3 mph 25.3 mph 0.05 in Rain Rain
3:53 AM 75.0 °F - 72.0 °F 90% 29.31 in 3.0 mi West 18.4 mph 28.8 mph 0.02 in Rain Rain
4:53 AM 73.9 °F - 72.0 °F 93% 29.35 in 5.0 mi WSW 20.7 mph 32.2 mph 0.01 in   Overcast
5:53 AM 73.9 °F - 72.0 °F 93% 29.39 in 7.0 mi WSW 20.7 mph 31.1 mph 0.01 in Rain Rain
6:33 AM 73.4 °F - 71.6 °F 94% 29.42 in 2.5 mi SW 19.6 mph 26.5 mph 0.09 in Rain Heavy Rain
6:53 AM 73.9 °F - 72.0 °F 93% 29.44 in 2.5 mi SW 20.7 mph 31.1 mph 0.13 in Rain Rain
7:53 AM 73.9 °F - 72.0 °F 93% 29.48 in 2.5 mi SW 19.6 mph 29.9 mph 0.05 in Rain Rain
8:20 AM 73.4 °F - 71.6 °F 94% 29.50 in 3.0 mi SW 20.7 mph 31.1 mph 0.01 in Rain Light Rain
8:53 AM 73.9 °F - 72.0 °F 93% 29.53 in 3.0 mi WSW 19.6 mph 31.1 mph 0.02 in Rain Light Rain
9:37 AM 75.2 °F - 73.4 °F 94% 29.57 in 3.0 mi WSW 17.3 mph 32.2 mph 0.02 in Rain Light Rain
9:53 AM 75.9 °F - 73.0 °F 91% 29.58 in 10.0 mi SW 17.3 mph 23.0 mph 0.02 in   Overcast
10:53 AM 79.0 °F - 71.1 °F 77% 29.61 in 10.0 mi SW 13.8 mph 23.0 mph N/A   Mostly Cloudy
11:53 AM 81.0 °F 84.9 °F 71.1 °F 72% 29.64 in 10.0 mi SW 16.1 mph 25.3 mph 0.00 in Rain Light Rain
12:53 PM 82.9 °F 88.0 °F 72.0 °F 69% 29.64 in 10.0 mi SW 11.5 mph 25.3 mph 0.00 in   Partly Cloudy
1:53 PM 82.9 °F 88.0 °F 72.0 °F 69% 29.67 in 10.0 mi SW 15.0 mph 23.0 mph N/A   Overcast
2:53 PM 84.9 °F 90.7 °F 72.0 °F 65% 29.67 in 10.0 mi SW 15.0 mph 20.7 mph N/A   Overcast
3:53 PM 86.0 °F 93.0 °F 73.0 °F 65% 29.68 in 10.0 mi SSW 18.4 mph 23.0 mph 0.00 in   Overcast
4:53 PM 86.0 °F 91.8 °F 71.6 °F 62% 29.70 in 10.0 mi SW 13.8 mph 21.9 mph N/A   Overcast
5:53 PM 84.9 °F 90.7 °F 72.0 °F 65% 29.71 in 10.0 mi SW 16.1 mph - N/A   Partly Cloudy
6:53 PM 80.6 °F 85.4 °F 73.4 °F 79% 29.74 in 10.0 mi West 6.9 mph - N/A   Overcast
7:53 PM 78.1 °F - 73.0 °F 84% 29.77 in 10.0 mi Calm Calm - N/A   Clear
8:53 PM 77.0 °F - 73.9 °F 90% 29.79 in 10.0 mi SSE 3.5 mph - N/A   Clear
9:53 PM 78.1 °F - 75.0 °F 90% 29.83 in 10.0 mi Calm Calm - N/A   Mostly Cloudy
10:16 PM 80.6 °F 86.2 °F 75.2 °F 84% 29.84 in 9.0 mi South 6.9 mph - N/A   Scattered Clouds
10:53 PM 80.1 °F 84.5 °F 73.9 °F 81% 29.86 in 10.0 mi South 10.4 mph - N/A   Clear
11:53 PM 80.1 °F 84.5 °F 73.9 °F 81% 29.88 in 10.0 mi South 11.5 mph 16.1 mph N/A   Scattered Clouds